Weather in Westport

Ireland     53°48′04″N   9°31′05″W
temp.,
°C
wind,
m/s
gust,
m/s
humid.,
%
clouds,
%
prec.,
mm/h
press.,
hPa
HPBL,
m
22 april, thu
thu2201:00+6ese259720 0.1 1023113
04:00+5ese23951 0.0 102357
07:00+4ese239712 0.0 102480
10:00+9ese478317 0.0 1025495
13:00+13se68659 0.0 10251128
16:00+15se56556 0.0 10241513
19:00+13ese57665 0.0 1023892
22:00+8se410857 0.0 1025334
23 april, fri
fri2301:00+6ese3875100 0.0 1025268
04:00+4ese3483100 0.0 1025107
07:00+3ese3877100 0.0 1025246
10:00+8ese5966100 0.0 1024542
13:00+13se6864100 0.0 1024840
16:00+14se7965100 0.0 10231035
19:00+13se5974100 0.0 1023833
22:00+9ese41078100 0.0 1025422
24 april, sat
sat2401:00+8ese3981100 0.0 1025350
04:00+6ese3779100 0.0 1025239
07:00+6ese378056 0.0 1025196
10:00+10ese47652 0.0 1026504
13:00+14ese67550 0.0 1026904
16:00+15ese57480 0.0 10251113
19:00+14e46620 0.0 1026790
22:00+8e23851 0.0 102850
25 april, sun
sun2501:00+5ese23893 0.0 102944
04:00+4e22865 0.0 102942
07:00+4e238698 0.0 102964
10:00+9ese3575100 0.0 1029410
13:00+13ese3560100 0.0 1028949
16:00+15ese34543 0.0 10271329
19:00+14ese33631 0.0 1026938
22:00+8ese22876 0.0 102712
26 april, mon
mon2601:00+7ese1189100 0.0 102714
04:00+7s0086100 0.0 102514
07:00+7wnw2284100 0.0 102418
10:00+12wnw366179 0.0 1023621
13:00+13wnw576878 0.0 10211068
16:00+12nnw57604 0.1 10191201
19:00+10nnw587099 0.1 10191222
22:00+7nnw35855 0.0 1019159